SM6VFJ-1 Weather Reports


time (UTC)temp
C
wind
direction
speed
KPH
gust
KPH
rain 1hr
cm
rain 24hr
cm
rain mn
cm
humidity
%
barometer
mb
20260508001517 1 260 0.0 0.0 0.00 0.00 0.00 75 1021.1
20260508000009 1 260 0.0 0.0 0.00 0.00 0.00 69 1021.0
20260507234507 1 260 0.0 0.0 0.00 0.00 0.00 67 1020.9
20260507233004 2 260 0.0 0.0 0.00 0.00 0.00 66 1020.8
20260507231503 2 260 0.0 0.0 0.00 0.00 0.00 67 1020.7
20260507230106 2 260 0.0 0.0 0.00 0.00 0.00 65 1020.6
20260507224559 2 260 0.0 0.0 0.00 0.00 0.00 65 1020.5
20260507223101 2 260 0.0 0.0 0.00 0.00 0.00 63 1020.5
20260507221557 2 260 0.0 0.0 0.00 0.00 0.00 60 1020.5
20260507220053 2 260 0.0 0.0 0.00 0.00 0.00 61 1020.3
20260507214614 3 260 0.0 0.0 0.00 0.00 0.00 61 1020.1
20260507213104 3 260 0.0 0.0 0.00 0.00 0.00 60 1020.0
20260507211606 3 260 0.0 0.0 0.00 0.00 0.00 61 1019.9
20260507210053 3 260 0.0 0.0 0.00 0.00 0.00 60 1019.8
20260507204552 3 260 0.0 0.0 0.00 0.00 0.00 59 1019.5
20260507203053 4 260 0.0 0.0 0.00 0.00 0.00 57 1019.4
20260507201547 4 260 0.0 0.0 0.00 0.00 0.00 55 1019.2
20260507200044 5 260 0.0 0.0 0.00 0.00 0.00 52 1019.0
20260507194613 5 260 0.0 0.0 0.00 0.00 0.00 51 1019.0
20260507193042 6 266 0.0 0.0 0.00 0.00 0.00 50 1018.8
20260507191544 7 270 0.0 0.0 0.00 0.00 0.00 50 1018.5
20260507190040 8 320 0.0 0.0 0.00 0.00 0.00 47 1018.4
20260507184541 10 320 0.0 0.0 0.00 0.00 0.00 44 1018.3
20260507183039 12 320 0.0 0.0 0.00 0.00 0.00 43 1018.2
20260507181537 13 320 0.0 0.0 0.00 0.00 0.00 36 1018.2
20260507180038 13 320 0.0 0.0 0.00 0.00 0.00 40 1018.2
20260507174542 13 320 0.0 4.8 0.00 0.00 0.00 34 1017.9
20260507173036 13 317 0.0 0.0 0.00 0.00 0.00 30 1017.8
20260507171527 13 317 0.0 0.0 0.00 0.00 0.00 26 1017.7
20260507170023 13 316 1.6 8.0 0.00 0.00 0.00 27 1017.5
20260507164522 13 13 1.6 8.0 0.00 0.00 0.00 28 1017.4
20260507163021 13 333 0.0 12.9 0.00 0.00 0.00 25 1017.4
20260507161518 13 322 1.6 9.7 0.00 0.00 0.00 26 1017.4
20260507160021 13 354 4.8 12.9 0.00 0.00 0.00 30 1017.3
20260507154527 13 338 1.6 12.9 0.00 0.00 0.00 33 1017.3
20260507153029 13 359 3.2 17.7 0.00 0.00 0.00 31 1017.2
20260507151514 13 354 6.4 14.5 0.00 0.00 0.00 32 1017.2
20260507150012 13 335 1.6 16.1 0.00 0.00 0.00 33 1017.3
20260507144511 13 330 3.2 12.9 0.00 0.00 0.00 32 1017.1
20260507143014 13 337 1.6 14.5 0.00 0.00 0.00 34 1017.0
20260507141507 13 335 3.2 16.1 0.00 0.00 0.00 37 1016.9
20260507140010 13 304 6.4 12.9 0.00 0.00 0.00 42 1016.8
20260507134505 13 354 6.4 16.1 0.00 0.00 0.00 42 1016.7
20260507133004 13 305 1.6 12.9 0.00 0.00 0.00 41 1016.6
20260507131503 13 23 4.8 12.9 0.00 0.00 0.00 41 1016.5
20260507130001 13 14 1.6 12.9 0.00 0.00 0.00 42 1016.5
20260507124603 13 346 4.8 12.9 0.00 0.00 0.00 37 1016.4
20260507123059 13 323 1.6 9.7 0.00 0.00 0.00 38 1016.4
20260507121558 13 25 3.2 9.7 0.00 0.00 0.00 38 1016.4
20260507120055 13 354 0.0 9.7 0.00 0.00 0.00 37 1016.3
20260507114557 12 349 4.8 9.7 0.00 0.00 0.00 40 1016.4
20260507113100 12 9 1.6 12.9 0.00 0.00 0.00 38 1016.3
20260507111554 13 312 3.2 9.7 0.00 0.00 0.00 40 1016.3
20260507110052 12 337 1.6 14.5 0.00 0.00 0.00 41 1016.2
20260507104551 12 349 1.6 8.0 0.00 0.00 0.00 40 1016.1
20260507103049 12 10 1.6 8.0 0.00 0.00 0.00 40 1016.1
20260507101549 12 354 3.2 8.0 0.00 0.00 0.00 42 1015.8
20260507100046 12 345 3.2 8.0 0.00 0.00 0.00 44 1015.7
20260507094538 12 16 1.6 6.4 0.00 0.00 0.00 45 1015.6
20260507093040 12 339 0.0 8.0 0.00 0.00 0.00 47 1015.5
20260507091535 11 307 1.6 8.0 0.00 0.00 0.00 45 1015.6
20260507090030 11 8 0.0 6.4 0.00 0.00 0.00 48 1015.6
20260507084527 11 317 0.0 8.0 0.00 0.00 0.00 50 1015.5
20260507083023 10 350 1.6 6.4 0.00 0.00 0.00 51 1015.4
20260507081519 10 350 0.0 4.8 0.00 0.00 0.00 57 1015.4
20260507080013 10 345 0.0 4.8 0.00 0.00 0.00 58 1015.2
20260507074510 9 359 0.0 4.8 0.00 0.00 0.00 63 1015.1
20260507073005 8 318 0.0 3.2 0.00 0.00 0.00 64 1015.0
20260507071501 8 288 1.6 6.4 0.00 0.00 0.00 65 1015.1
20260507070057 7 207 0.0 4.8 0.00 0.00 0.00 68 1015.0
20260507064552 7 220 0.0 6.4 0.00 0.00 0.00 69 1014.9
20260507063048 6 206 1.6 4.8 0.00 0.00 0.00 69 1014.8
20260507061545 6 200 1.6 6.4 0.00 0.00 0.00 69 1014.8
20260507060040 5 213 1.6 8.0 0.00 0.00 0.00 69 1014.7
20260507054535 5 220 1.6 9.7 0.00 0.00 0.00 72 1014.5
20260507053054 4 211 1.6 6.4 0.00 0.00 0.00 73 1014.5
20260507051538 4 195 0.0 12.9 0.00 0.00 0.00 74 1014.3
20260507050032 3 195 1.6 8.0 0.00 0.00 0.00 74 1014.0
20260507044524 3 213 0.0 6.4 0.00 0.00 0.00 75 1013.9
20260507043021 3 188 1.6 4.8 0.00 0.00 0.00 75 1013.8
20260507041516 3 189 3.2 8.0 0.00 0.00 0.00 75 1013.7
20260507040010 2 185 3.2 12.9 0.00 0.00 0.00 75 1013.7
20260507034516 2 181 8.0 12.9 0.00 0.00 0.00 74 1013.6
20260507033013 2 183 1.6 8.0 0.00 0.00 0.00 73 1013.4
20260507031503 2 186 1.6 4.8 0.00 0.00 0.00 72 1013.2
20260507030101 3 195 1.6 4.8 0.00 0.00 0.00 72 1013.0
20260507024605 3 191 1.6 3.2 0.00 0.00 0.00 72 1012.9
20260507023058 2 197 0.0 8.0 0.00 0.00 0.00 76 1012.9
20260507021555 2 150 0.0 4.8 0.00 0.00 0.00 79 1012.9
20260507020052 2 89 0.0 0.0 0.00 0.00 0.00 78 1012.8
20260507014600 3 89 0.0 4.8 0.00 0.00 0.00 77 1012.6
20260507013050 3 89 0.0 0.0 0.00 0.00 0.00 76 1012.6
20260507011545 3 89 0.0 0.0 0.00 0.00 0.00 75 1012.5
20260507010041 4 89 0.0 0.0 0.00 0.00 0.00 73 1012.4
20260507004539 5 89 0.0 0.0 0.00 0.00 0.00 70 1012.4
20260507003033 6 87 1.6 4.8 0.00 0.00 0.00 69 1012.4